Tracking 19212 objects as of 16-Jul-2018
HD Live streaming from Space Station
objects crossing your sky now

H-2A R/B

Track H-2A R/B now!


NORAD ID: 42966
Int'l Code: 2017-062B
Perigee: 330.9 km
Apogee: 35,266.2 km
Inclination: 31.7 °
Period: 623.2 minutes
Semi major axis: 24169 km
RCS: Unknown
Launch date: October 9, 2017
Source: Japan (JPN)
Launch site: TANEGASHIMA SPACE CENTER (TNSTA)

Note: This is a ROCKET BODY
aabbcc
Your satellite tracking list
Your tracking list is empty




NASA's NSSDC Master Catalog

Two Line Element Set (TLE):
1 42966U 17062B   18196.33205761 +.00000210 +00000-0 +33105-3 0  9993
2 42966 031.6942 286.1112 7227138 331.4962 003.4563 02.31047215006432
Source of the keplerian elements: AFSPC